Weather History for GMMZ - January, 2014

Change the Weather History Date:

Wednesday, January 29, 2014

  Actual Average Record
Temperature  
Mean Temperature 50 °F -  
Max Temperature 63 °F 67 °F - ()
Min Temperature 37 °F 40 °F - ()
Degree Days  
Heating Degree Days 15    
Moisture  
Dew Point 22 °F    
Average Humidity 33    
Maximum Humidity 57    
Minimum Humidity 14    
Precipitation  
Precipitation 0.00 in 0.02 in - ()
Sea Level Pressure  
Sea Level Pressure 29.69 in    
Wind  
Wind Speed 9 mph ()    
Max Wind Speed 36 mph    
Max Gust Speed 45 mph    
Visibility 8.3 miles    
Events      
T = Trace of Precipitation, MM = Missing Value Source: Averaged Metar Reports

Daily Weather History Graph

Daily Weather History Graph

Search for Another Location

Airport or City:

Trip Planner

Search our weather history database for the weather conditions in past years. The results will help you decide how hot, cold, wet, or windy it might be!

Date:

Astronomy

Jan. 29, 2014 Rise Set
Actual Time 7:21 AM WET 6:00 PM WET
Civil Twilight 6:55 AM WET 6:26 PM WET
Nautical Twilight 6:26 AM WET 6:55 PM WET
Astronomical Twilight 5:58 AM WET 7:23 PM WET
Moon 5:44 AM WET 4:44 PM WET
Length of Visible Light 11h 30m
Length of Day
10h 39m
Waning Crescent, 3% of the Moon is Illuminated
Jan 29
Waning Crescent
Jan 30
New
Feb 6
First Quarter
Feb 14
Full
Feb 22
Last Quarter

Hourly Weather History & Observations

Time (WET) Temp. Windchill Dew Point Humidity Pressure Visibility Wind Dir Wind Speed Gust Speed Precip Events Conditions
12:00 AM 53 °F - 18 °F 14%  in 12 mi Calm Calm - -  
12:00 AM 51.8 °F - 17.6 °F 26% 29.83 in - Calm Calm - N/A   Clear
1:00 AM 46.4 °F - 15.8 °F 29% 29.77 in - Calm Calm - N/A   Clear
2:00 AM 46.4 °F - 17.6 °F 32% 29.77 in - Calm Calm - N/A   Clear
3:00 AM 46 °F - 16 °F 18%  in 12 mi WNW 2.3 mph - -  
3:00 AM 44.6 °F - 15.8 °F 31% 29.80 in - Calm Calm - N/A   Clear
4:00 AM 44.6 °F - 15.8 °F 31% 29.77 in - Variable 2.3 mph - N/A   Clear
5:00 AM 44.6 °F - 15.8 °F 31% 29.74 in - Variable 1.2 mph - N/A   Clear
6:00 AM 42 °F - 16 °F 22%  in 12 mi Calm Calm - -  
6:00 AM 42.8 °F - 15.8 °F 34% 29.83 in - Calm Calm - N/A   Clear
7:00 AM 37.4 °F - 12.2 °F 36% 29.71 in - Calm Calm - N/A   Clear
8:00 AM 39.2 °F - 14.0 °F 36% - - Calm Calm - N/A   Unknown
9:00 AM 46 °F - 16 °F 17%  in 12 mi Calm Calm - -   Scattered Clouds
9:00 AM 46.4 °F - 15.8 °F 29% 29.71 in 6.2 mi Calm Calm - N/A   Partly Cloudy
10:00 AM 51.8 °F - 17.6 °F 26% 29.71 in 6.2 mi Variable 1.2 mph - N/A   Unknown
11:00 AM 60.8 °F - 24.8 °F 25% 29.68 in 6.2 mi WNW 29.9 mph - N/A   Partly Cloudy
12:00 PM 62 °F - 28 °F 16%  in 12 mi NW 33.4 mph - -   Scattered Clouds
12:00 PM 62.6 °F - 28.4 °F 27% 29.65 in 6.2 mi NW 32.2 mph - N/A   Partly Cloudy
1:00 PM 60.8 °F - 30.2 °F 31% 29.59 in 6.2 mi NW 34.5 mph - N/A   Partly Cloudy
2:00 PM 59.0 °F - 30.2 °F 34% 29.56 in - WNW 35.7 mph - N/A   Partly Cloudy
3:00 PM 56 °F - 31 °F 27%  in 12 mi WNW 34.5 mph - -   Mostly Cloudy
3:00 PM 57.2 °F - 32.0 °F 38% 29.56 in 6.2 mi WNW 34.5 mph - N/A   Mostly Cloudy
4:00 PM 50.0 °F - 30.2 °F 47% 29.62 in 6.2 mi West 33.4 mph 44.9 mph N/A   Mostly Cloudy
5:00 PM 51.8 °F - 23.0 °F 33% 29.56 in 6.2 mi WNW 31.1 mph - N/A   Mostly Cloudy
6:00 PM 45 °F - 30 °F 44%  in 12 mi West 32.2 mph - -   Partly Cloudy
6:00 PM 44.6 °F 34.4 °F 30.2 °F 57% 29.59 in 6.2 mi West 32.2 mph - N/A   Scattered Clouds
7:00 PM 42.8 °F 32.3 °F 24.8 °F 49% 29.65 in 6.2 mi WNW 29.9 mph - N/A   Scattered Clouds
8:00 PM 42.8 °F 37.5 °F 17.6 °F 36% 29.68 in 6.2 mi WNW 9.2 mph - N/A   Scattered Clouds
9:00 PM 41 °F - 26 °F 42%  in 12 mi West 26.5 mph - -   Partly Cloudy
9:00 PM 41.0 °F 30.5 °F 26.6 °F 57% 29.65 in 6.2 mi West 26.5 mph - N/A   Scattered Clouds
10:00 PM 42.8 °F 33.8 °F 19.4 °F 39% 29.65 in 6.2 mi West 21.9 mph 38.0 mph N/A   Scattered Clouds
11:00 PM 42.8 °F 35.8 °F 17.6 °F 36% 29.68 in 6.2 mi NW 13.8 mph - N/A   Scattered Clouds